EW4061 Weather Reports


Display with metric or nautical units.
time (UTC)temp
F
wind
direction
speed
MPH
gust
MPH
rain 1hr
in
rain 24hr
in
rain mn
in
humidity
%
barometer
mb
20260906102706 68 145 0.0 1.0 0.00 0.00 0.00 99 1013.5
20260906101806 68 0 0.0 0.0 0.00 0.00 0.00 99 1013.5
20260906100906 68 0 0.0 1.0 0.00 0.00 0.00 99 1013.5
20260906100006 68 268 0.0 1.0 0.00 0.00 0.00 99 1013.5
20260906095406 68 237 0.0 2.0 0.00 0.00 0.00 99 1013.5
20260906094506 68 101 0.0 2.0 0.00 0.00 0.00 99 1013.5
20260906093605 68 232 0.0 1.0 0.00 0.00 0.00 99 1013.2
20260906092705 67 0 0.0 1.0 0.00 0.00 0.00 99 1013.5
20260906091806 67 210 0.0 2.0 0.00 0.00 0.00 99 1013.2
20260906090906 67 94 0.0 1.0 0.00 0.00 0.00 99 1013.2
20260906090005 67 0 0.0 1.0 0.00 0.00 0.00 99 1013.2
20260906085405 67 220 0.0 1.0 0.00 0.00 0.00 99 1013.2
20260906084506 66 172 0.0 1.0 0.00 0.00 0.00 99 1012.8
20260906083605 67 130 0.0 1.0 0.00 0.00 0.00 99 1012.8
20260906082705 67 168 0.0 2.0 0.00 0.00 0.00 99 1012.8
20260906081805 67 150 0.0 2.0 0.00 0.00 0.00 99 1012.8
20260906080926 67 337 0.0 1.0 0.00 0.00 0.00 99 1012.8
20260906080006 66 272 0.0 2.0 0.00 0.00 0.00 99 1012.8
20260906075405 67 205 0.0 2.0 0.00 0.00 0.00 99 1012.5
20260906074526 67 89 0.0 1.0 0.00 0.00 0.00 99 1012.5
20260906073605 67 152 0.0 1.0 0.00 0.00 0.00 99 1012.8
20260906072705 68 155 0.0 1.0 0.00 0.00 0.00 99 1012.1
20260906071826 68 181 0.0 2.0 0.00 0.00 0.00 99 1012.5
20260906070927 68 48 0.0 1.0 0.00 0.00 0.00 99 1012.5
20260906070005 68 153 0.0 1.0 0.00 0.00 0.00 99 1012.8
20260906065405 68 318 0.0 2.0 0.00 0.00 0.00 99 1012.8
20260906064505 68 282 0.0 2.0 0.00 0.00 0.00 99 1012.8
20260906063605 68 178 0.0 1.0 0.00 0.00 0.00 99 1012.8
20260906062725 68 179 0.0 1.0 0.00 0.00 0.00 99 1013.2
20260906061805 68 87 0.0 1.0 0.00 0.00 0.00 99 1013.2
20260906060926 68 79 0.0 2.0 0.00 0.00 0.00 99 1013.2
20260906060004 68 245 0.0 2.0 0.00 0.00 0.00 99 1013.2
20260906055405 68 219 1.0 2.0 0.00 0.00 0.00 99 1013.5
20260906054505 69 0 0.0 0.0 0.00 0.00 0.00 99 1013.2
20260906053604 69 86 0.0 1.0 0.00 0.00 0.00 99 1013.5
20260906052704 69 106 0.0 1.0 0.00 0.00 0.00 99 1013.5
20260906051804 69 241 0.0 1.0 0.00 0.00 0.00 99 1013.2
20260906050904 69 218 0.0 2.0 0.00 0.00 0.00 99 1013.2
20260906050005 69 95 0.0 2.0 0.00 0.00 0.00 99 1013.2
20260906045404 69 151 0.0 2.0 0.00 0.00 0.00 99 1012.8
20260906044526 70 230 0.0 1.0 0.00 0.00 0.00 99 1013.2
20260906043604 70 0 0.0 1.0 0.00 0.00 0.00 99 1013.2
20260906042704 70 124 0.0 2.0 0.00 0.00 0.00 99 1013.2
20260906041805 70 69 0.0 2.0 0.00 0.00 0.00 99 1013.2
20260906040904 70 232 0.0 2.0 0.00 0.00 0.00 99 1013.5
20260906040005 70 67 0.0 1.0 0.00 0.00 0.00 98 1013.2
20260906035404 70 32 0.0 1.0 0.00 0.00 0.00 98 1013.5
20260906034504 71 277 0.0 2.0 0.00 0.00 0.00 97 1013.5
20260906033625 71 312 1.0 3.0 0.00 0.00 0.00 97 1013.5
20260906032704 71 213 0.0 2.0 0.00 0.00 0.00 97 1013.5
20260906031804 71 36 0.0 2.0 0.00 0.00 0.00 96 1013.5
20260906030904 71 35 0.0 2.0 0.00 0.00 0.00 96 1013.5
20260906030004 71 28 0.0 2.0 0.00 0.00 0.00 95 1013.5
20260906025404 72 273 0.0 2.0 0.00 0.00 0.00 95 1013.2
20260906024503 72 16 0.0 1.0 0.00 0.00 0.00 94 1013.2
20260906023604 72 260 0.0 1.0 0.00 0.00 0.00 93 1013.2
20260906022704 73 210 0.0 1.0 0.00 0.00 0.00 91 1013.2
20260906021804 74 169 0.0 1.0 0.00 0.00 0.00 90 1013.2
20260906020903 74 342 0.0 2.0 0.00 0.00 0.00 88 1013.2
20260906020004 74 192 0.0 2.0 0.00 0.00 0.00 85 1012.8
20260906015424 74 13 0.0 1.0 0.00 0.00 0.00 84 1012.8
20260906014525 74 357 0.0 1.0 0.00 0.00 0.00 85 1012.5
20260906013604 75 311 0.0 1.0 0.00 0.00 0.00 84 1012.5
20260906012725 75 356 0.0 1.0 0.00 0.00 0.00 83 1012.8
20260906011803 76 157 0.0 1.0 0.00 0.00 0.00 83 1012.5
20260906010903 76 170 0.0 1.0 0.00 0.00 0.00 83 1012.1
20260906010003 76 130 0.0 1.0 0.00 0.00 0.00 82 1012.5
20260906005424 76 359 0.0 1.0 0.00 0.00 0.00 80 1012.5
20260906004503 77 0 0.0 0.0 0.00 0.00 0.00 81 1012.1
20260906003603 77 0 0.0 1.0 0.00 0.00 0.00 81 1012.1
20260906002703 78 106 0.0 1.0 0.00 0.00 0.00 77 1012.1
20260906001803 78 62 0.0 2.0 0.00 0.00 0.00 77 1012.1
20260906000903 79 107 0.0 1.0 0.00 0.00 0.00 74 1012.1
20260906000003 80 235 0.0 2.0 0.00 0.00 0.00 67 1011.8
20260905235403 80 293 0.0 2.0 0.00 0.00 0.00 66 1011.4
20260905234503 80 37 0.0 1.0 0.00 0.00 0.00 67 1011.4
20260905233603 81 271 0.0 2.0 0.00 0.00 0.00 66 1011.4
20260905232703 81 276 0.0 2.0 0.00 0.00 0.00 69 1011.4
20260905231803 81 327 0.0 3.0 0.00 0.00 0.00 69 1011.4
20260905230924 82 170 0.0 3.0 0.00 0.00 0.00 66 1011.8
20260905230003 82 57 0.0 2.0 0.00 0.00 0.00 65 1011.8
20260905225403 83 314 0.0 2.0 0.00 0.00 0.00 65 1011.4
20260905224502 83 296 0.0 2.0 0.00 0.00 0.00 63 1011.4
20260905222725 83 319 0.0 3.0 0.00 0.00 0.00 63 1011.8
20260905221803 84 318 1.0 4.0 0.00 0.00 0.00 63 1011.4
20260905220924 85 299 1.0 4.0 0.00 0.00 0.00 61 1011.8
20260905220003 85 311 1.0 3.0 0.00 0.00 0.00 60 1011.4
20260905215403 86 316 1.0 4.0 0.00 0.00 0.00 58 1011.4
20260905214503 87 303 1.0 4.0 0.00 0.00 0.00 55 1011.4
20260905213603 89 290 1.0 3.0 0.00 0.00 0.00 55 1011.4
20260905212724 89 295 1.0 4.0 0.00 0.00 0.00 56 1011.1
20260905211830 89 285 1.0 3.0 0.00 0.00 0.00 57 1011.1
20260905210909 89 262 1.0 3.0 0.00 0.00 0.00 55 1011.1
20260905210009 90 264 1.0 3.0 0.00 0.00 0.00 57 1011.1
20260905205409 90 256 1.0 3.0 0.00 0.00 0.00 56 1011.1
20260905204509 89 268 0.0 2.0 0.00 0.00 0.00 57 1011.1
20260905203609 90 278 1.0 4.0 0.00 0.00 0.00 53 1011.1
20260905202709 91 257 1.0 6.0 0.00 0.00 0.00 53 1011.1
20260905201809 91 309 2.0 6.0 0.00 0.00 0.00 53 1011.1
20260905200910 91 249 1.0 4.0 0.00 0.00 0.00 53 1010.7
20260905200009 92 194 1.0 5.0 0.00 0.00 0.00 49 1010.7
20260905195409 93 252 1.0 3.0 0.00 0.00 0.00 49 1010.7
20260905194509 91 214 1.0 4.0 0.00 0.00 0.00 53 1010.7
20260905193609 90 188 3.0 7.0 0.00 0.00 0.00 52 1010.7
20260905192709 91 218 1.0 5.0 0.00 0.00 0.00 56 1011.1
20260905191809 90 210 2.0 6.0 0.00 0.00 0.00 56 1011.1
20260905190930 90 197 2.0 6.0 0.00 0.00 0.00 56 1011.4
20260905190030 89 185 3.0 7.0 0.00 0.00 0.00 59 1011.4
20260905185409 88 201 3.0 6.0 0.00 0.00 0.00 62 1011.8
20260905184509 88 218 2.0 5.0 0.00 0.00 0.00 64 1012.1
20260905183609 88 211 2.0 11.0 0.00 0.00 0.00 62 1012.1
20260905182730 87 206 3.0 11.0 0.00 0.00 0.00 63 1012.1
20260905181809 86 224 2.0 8.0 0.00 0.00 0.00 62 1012.5
20260905180908 87 184 1.0 4.0 0.00 0.00 0.00 61 1012.5
20260905180009 86 285 1.0 4.0 0.00 0.00 0.00 67 1012.1
20260905175408 86 256 1.0 4.0 0.00 0.00 0.00 64 1012.5
20260905174508 86 280 1.0 2.0 0.00 0.00 0.00 71 1012.5
20260905173608 87 7 1.0 3.0 0.00 0.00 0.00 66 1012.1
20260905172708 87 5 1.0 3.0 0.00 0.00 0.00 66 1012.1
20260905171808 87 229 2.0 4.0 0.00 0.00 0.00 61 1012.5
20260905170908 86 291 2.0 7.0 0.00 0.00 0.00 61 1012.5
20260905170008 87 188 2.0 7.0 0.00 0.00 0.00 62 1012.8
20260905165408 88 232 1.0 5.0 0.00 0.00 0.00 60 1013.2
20260905164529 88 181 1.0 4.0 0.00 0.00 0.00 62 1013.5
20260905163629 88 210 1.0 5.0 0.00 0.00 0.00 60 1013.5
20260905162729 88 222 1.0 4.0 0.00 0.00 0.00 64 1013.5
20260905161808 87 180 1.0 3.0 0.00 0.00 0.00 61 1013.9
20260905160909 87 150 2.0 6.0 0.00 0.00 0.00 63 1013.9
20260905160029 86 198 2.0 6.0 0.00 0.00 0.00 64 1014.2
20260905155408 87 245 1.0 5.0 0.00 0.00 0.00 63 1014.2
20260905154508 87 191 1.0 5.0 0.00 0.00 0.00 66 1014.2
20260905153608 85 155 1.0 6.0 0.00 0.00 0.00 68 1014.6
20260905152708 84 177 1.0 6.0 0.00 0.00 0.00 74 1014.2
20260905151808 85 230 1.0 8.0 0.00 0.00 0.00 75 1014.6
20260905150908 87 352 1.0 3.0 0.00 0.00 0.00 72 1014.6
20260905150029 87 345 1.0 3.0 0.00 0.00 0.00 71 1013.9
20260905145408 87 175 1.0 4.0 0.00 0.00 0.00 67 1013.9
20260905144508 88 299 1.0 4.0 0.00 0.00 0.00 67 1013.5
20260905143608 89 290 1.0 4.0 0.00 0.00 0.00 65 1013.9
20260905142708 88 169 2.0 5.0 0.00 0.00 0.00 64 1014.2
20260905141808 88 108 2.0 4.0 0.00 0.00 0.00 63 1013.9
20260905140908 88 209 2.0 7.0 0.00 0.00 0.00 64 1013.9
20260905140008 89 270 2.0 7.0 0.00 0.00 0.00 62 1013.5
20260905135408 90 233 1.0 4.0 0.00 0.00 0.00 62 1013.5
20260905134508 88 357 2.0 9.0 0.00 0.00 0.00 66 1013.5
20260905133607 87 266 2.0 9.0 0.00 0.00 0.00 67 1013.5
20260905132730 87 251 2.0 5.0 0.00 0.00 0.00 70 1013.2
20260905131807 87 220 1.0 5.0 0.00 0.00 0.00 70 1013.5
20260905130907 87 255 1.0 6.0 0.00 0.00 0.00 69 1013.5
20260905130008 86 278 2.0 6.0 0.00 0.00 0.00 72 1013.5
20260905125407 84 243 2.0 8.0 0.00 0.00 0.00 75 1013.2
20260905124507 83 200 2.0 11.0 0.00 0.00 0.00 77 1013.2
20260905123607 82 191 2.0 10.0 0.00 0.00 0.00 78 1013.5
20260905122707 79 218 1.0 4.0 0.00 0.00 0.00 87 1013.2
20260905121807 78 208 1.0 4.0 0.00 0.00 0.00 89 1013.5
20260905120907 78 224 1.0 7.0 0.00 0.00 0.00 89 1013.5
20260905120028 74 219 1.0 3.0 0.00 0.00 0.00 99 1013.5
20260905115428 73 197 1.0 3.0 0.00 0.00 0.00 99 1013.2
20260905114508 72 259 1.0 3.0 0.00 0.00 0.00 99 1013.2
20260905113607 71 207 1.0 3.0 0.00 0.00 0.00 99 1013.2
20260905112707 70 147 1.0 3.0 0.00 0.00 0.00 99 1013.2
20260905111807 70 181 0.0 2.0 0.00 0.00 0.00 99 1013.2
20260905110907 70 217 0.0 2.0 0.00 0.00 0.00 99 1013.2
20260905110007 69 150 1.0 3.0 0.00 0.00 0.00 99 1013.5
20260905105407 69 92 0.0 2.0 0.00 0.00 0.00 99 1013.2
20260905104507 69 146 0.0 2.0 0.00 0.00 0.00 99 1013.2
20260905103607 69 99 0.0 2.0 0.00 0.00 0.00 99 1013.2